Weather in Degtyanoye

Russia / Ryazan Oblast     54°26′14″N   40°39′06″E
temp.,
°C
wind,
m/s
gust,
m/s
humid.,
%
clouds,
%
prec.,
mm/h
press.,
hPa
HPBL,
m
25 february, thu
thu2500:00−16s5995100 0.4 1032410
03:00−15ssw51095100 0.7 1029402
06:00−13ssw61095100 1.2 1025404
09:00−10ssw71195100 2.8 1021421
12:00−3ssw71296100 1.8 1016477
15:00+2w512100100 2.8 1013373
18:00+2wnw512100100 0.1 1013313
21:00+1wnw41099100 0.1 1014331
26 february, fri
fri2600:00+1wnw4898100 0.0 1014265
03:00+1wsw3799100 0.0 1014200
06:00+1wsw59100100 0.2 1012275
09:00+2wsw511100100 0.8 1011331
12:00+2w512100100 0.4 1008291
15:00+2wsw615100100 1.3 1006373
18:00+2w716100100 0.8 1003536
21:00+2w6169398 0.8 1004609
27 february, sat
sat2700:00+1w61588100 0.1 1003737
03:00+1w7148993 0.1 1002751
06:000w6139198 0.0 1001663
09:00+1w7139298 0.0 1001680
12:00+1wnw612100100 0.1 1001712
15:00+1wnw7139999 0.2 1002783
18:00−5nnw51089100 0.8 1004647
21:00−8nnw4992100 0.8 1008330
28 february, sun
sun2800:00−9nnw389492 0.0 1009229
03:00−11nnw379490 0.0 1012154
06:00−11nnw379552 0.0 1013163
09:00−11nnw489226 0.0 1015392
12:00−7nnw478983 0.0 1016550
15:00−5nnw578891 0.1 1017697
18:00−6nnw4993100 0.1 1018542
21:00−9nnw369397 0.1 1021109
1 march, mon
mon100:00−10nnw339680 0.0 102259
03:00−11nnw349574 0.0 102456
06:00−11nnw239650 0.0 102523
09:00−9nnw259657 0.0 1027193
12:00−4nw358976 0.0 1027530
15:00−2wnw358586 0.1 1027736
18:00−4wsw4891100 0.0 1026240
21:00−6wsw41093100 0.0 1024226